Camarillo, CA

9:14 AM PST on December 04, 2016 (GMT -0800)
Camarillo

Weather History for KCMA - August, 2012

Change the Weather History Date:

Monday, August 27, 2012

  Actual Average Record
Temperature  
Mean Temperature 67 °F 68 °F  
Max Temperature 81 °F 77 °F 91 °F (2009)
Min Temperature 52 °F 59 °F 52 °F (2012)
Degree Days  
Heating Degree Days 0 0  
Month to date heating degree days 0 0  
Since 1 June heating degree days 73 53  
Since 1 July heating degree days 33 10  
Cooling Degree Days 2 3  
Month to date cooling degree days 117 81  
Year to date cooling degree days 151 206  
Since 1 June cooling degree days 136 175  
Growing Degree Days 18 (Base 50)    
Moisture  
Dew Point 54 °F    
Average Humidity 63    
Maximum Humidity 89    
Minimum Humidity 36    
Precipitation  
Precipitation 0.00 in 0.00 in 0.01 in (2006)
Month to date precipitation 0.03 0.03  
Year to date precipitation 5.71 11.03  
Since 1 July precipitation 0.03  
Sea Level Pressure  
Sea Level Pressure 29.95 in    
Wind  
Wind Speed 4 mph (WSW)    
Max Wind Speed 14 mph    
Max Gust Speed 17 mph    
Visibility 10 miles    
Events      
T = Trace of Precipitation, MM = Missing Value Source: NWS Daily Summary

Daily Weather History Graph

Daily Weather History Graph

Search for Another Location

Airport or City:

Trip Planner

Search our weather history database for the weather conditions in past years. The results will help you decide how hot, cold, wet, or windy it might be!

Date:

Astronomy

Aug. 27, 2012 Rise Set
Actual Time 6:26 AM PDT 7:28 PM PDT
Civil Twilight 6:00 AM PDT 7:53 PM PDT
Nautical Twilight 5:30 AM PDT 8:24 PM PDT
Astronomical Twilight 4:58 AM PDT 8:55 PM PDT
Moon 4:45 PM PDT (8/27) 2:23 AM PDT (8/27)
Length of Visible Light 13h 53m
Length of Day
13h 01m
Waxing Gibbous, 83% of the Moon is Illuminated
Aug 27
Waxing Gibbous
Aug 31
Full
Sep 8
Last Quarter
Sep 15
New
Sep 22
First Quarter

Hourly Weather History & Observations

Time (PDT) Temp. Dew Point Humidity Pressure Visibility Wind Dir Wind Speed Gust Speed Precip Events Conditions
12:55 AM 59.0 °F 55.0 °F 87% 29.95 in 10.0 mi Calm Calm - N/A   Clear
1:55 AM 57.0 °F 52.0 °F 83% 29.95 in 10.0 mi Calm Calm - N/A   Clear
2:55 AM 55.9 °F 51.1 °F 84% 29.95 in 10.0 mi NNW 3.5 mph - N/A   Clear
3:55 AM 57.9 °F 54.0 °F 87% 29.95 in 10.0 mi Calm Calm - N/A   Clear
4:55 AM 55.0 °F 51.1 °F 86% 29.95 in 10.0 mi Calm Calm - N/A   Clear
5:55 AM 55.0 °F 50.0 °F 83% 29.96 in 10.0 mi Calm Calm - N/A   Clear
7:55 AM 59.0 °F 53.1 °F 81% 29.99 in 10.0 mi Calm Calm - N/A   Clear
8:55 AM 64.9 °F 54.0 °F 68% 29.99 in 10.0 mi Calm Calm - N/A   Clear
9:55 AM 71.1 °F 54.0 °F 55% 29.99 in 10.0 mi Calm Calm - N/A   Clear
10:55 AM 75.9 °F 50.0 °F 40% 30.00 in 10.0 mi Calm Calm - N/A   Clear
11:55 AM 79.0 °F 55.0 °F 44% 29.99 in 10.0 mi WSW 8.1 mph - N/A   Clear
12:55 PM 80.1 °F 51.1 °F 36% 29.98 in 10.0 mi SW 9.2 mph - N/A   Clear
1:55 PM 79.0 °F 54.0 °F 42% 29.97 in 10.0 mi West 10.4 mph - N/A   Clear
2:55 PM 79.0 °F 52.0 °F 39% 29.96 in 10.0 mi WSW 9.2 mph - N/A   Clear
3:55 PM 79.0 °F 51.1 °F 38% 29.94 in 10.0 mi WSW 8.1 mph - N/A   Clear
4:55 PM 77.0 °F 55.9 °F 48% 29.93 in 10.0 mi West 10.4 mph - N/A   Clear
5:55 PM 75.0 °F 55.9 °F 51% 29.91 in 10.0 mi West 8.1 mph - N/A   Clear
6:55 PM 71.1 °F 55.9 °F 59% 29.91 in 10.0 mi WSW 6.9 mph - N/A   Clear
7:55 PM 68.0 °F 55.0 °F 63% 29.93 in 10.0 mi SW 3.5 mph - N/A   Clear
9:55 PM 66.0 °F 59.0 °F 78% 29.94 in 10.0 mi Calm Calm - N/A   Clear
10:55 PM 64.9 °F 55.9 °F 73% 29.94 in 10.0 mi Calm Calm - N/A   Clear
11:55 PM 63.0 °F 55.0 °F 75% 29.93 in 10.0 mi West 3.5 mph - N/A   Clear